[[{"header":{"parameterUnit":"m.s-1","parameterCategory":1,"la1":30.2992,"la2":30.254,"lo1":-89.0895,"lo2":-89.0443,"dy":0.0025,"dx":0.0025,"nx":19,"ny":19,"refTime":"2026-04-19T21:00:00:Z","depth":0,"parameterNumber":2,"parameterNumberName":"U-component_of_WINDS"},"data":[0,0,0,-7.8833,-7.8836,-7.8952,-7.8953,-7.9143,-7.9145,0,0,0,0,0,0,0,0,0,0,0,-7.8824,-7.8826,-7.8833,-7.8836,-7.8952,-7.8953,-7.9142,-7.9145,0,0,0,0,0,0,0,0,0,0,0,-7.8823,-7.8825,-7.8828,-7.8837,-7.8952,-7.8953,-7.9142,-7.9039,0,0,0,0,0,0,0,0,0,0,-7.8919,-7.8936,-7.8825,-7.8828,-7.8838,-7.8952,-7.8953,-7.9034,-7.9046,-7.9108,0,-7.917,0,-7.9161,-7.916,-7.9161,0,0,0,-7.8817,-7.8926,-7.8934,-7.8828,-7.8839,-7.8952,-7.8894,-7.904,-7.9054,-7.9124,-7.9173,-7.9178,-7.9164,-7.9162,-7.9163,-7.9588,-7.9591,0,0,-7.8811,-7.8858,-7.8925,-7.8945,-7.893,-7.8891,-7.8898,-7.9047,-7.9103,-7.9173,-7.9182,-7.9167,-7.9163,-7.9165,-7.9586,-7.9589,0,0,0,-7.8805,-7.8855,-7.8858,-7.8938,-7.8956,-7.8895,-7.8903,-7.9096,-7.9094,-7.9184,-7.917,-7.9165,-7.9167,-7.9582,-7.9587,-7.9778,0,0,0,-7.88,-7.8851,-7.8857,-7.8887,-7.8954,-7.9028,-7.895,-7.9084,-7.9099,-7.9169,-7.9165,-7.917,-7.9579,-7.9585,-7.9766,-7.986,0,0,0,-7.8807,-7.8851,-7.8877,-7.8889,-7.8941,-7.9024,-7.9029,-7.9086,-7.9091,-7.9161,-7.917,-7.9577,-7.9584,-7.9755,-7.9842,-7.9989,0,0,0,-7.8829,-7.9043,-7.8881,-7.9115,-7.894,-7.9141,-7.9028,-7.9174,-7.9257,-7.9166,-7.958,-7.9586,-7.9751,-7.9831,-7.9977,-8.0122,-8.0186,0,0,-7.9126,-7.9081,-7.9215,-7.9073,-7.9316,-7.9119,-7.9389,-7.9419,-7.9381,-7.9521,-7.9531,-7.977,-7.9841,-7.9986,-8.0524,-8.0576,0,0,0,-7.9326,-7.9423,-7.9477,-7.9558,-7.9587,-7.962,-7.9604,-7.9615,-7.9732,-7.9463,-7.9859,-7.99,-7.9983,-8.005,-8.0094,-8.0163,-7.9619,-7.9618,-7.9617,-7.9816,-7.9757,-7.9976,-7.9933,-8.0014,-7.9996,-8.0056,-8.0068,-7.9984,-8.0079,-8.0121,-8.0455,-8.0535,-8.0567,-8.064,-8.019,-8.0191,-8.0191,-8.0192,-8.0248,-8.0378,-8.0263,-8.0435,-8.0372,-8.0515,-8.0506,-8.0442,-8.0567,-8.0417,-8.0487,-8.0331,-8.0625,-8.0686,-8.0206,-8.0203,-8.0202,-8.02,-8.0199,-8.0565,-8.0617,-8.0628,-8.0742,-8.0836,-8.0783,-8.091,-8.0846,-8.0788,-8.0857,-8.0897,-8.0893,-8.0884,-8.088,-8.0881,-8.0882,-8.0883,-8.0884,-8.0885,-8.089,-8.0896,-8.101,-8.1061,-8.1106,-8.1158,-8.1143,-8.1186,-8.1217,-8.1162,-8.1162,-8.1071,-8.0664,-8.0565,-8.0903,-8.09,-8.0897,-8.0896,-8.0894,-8.1355,-8.124,-8.1417,-8.1463,-8.1518,-8.1617,-8.1535,-8.1628,-8.1654,-8.1719,-8.1613,-8.1322,-8.127,-8.1235,-8.1153,-8.1623,-8.1623,-8.1623,-8.1623,-8.1624,-8.1592,-8.176,-8.1838,-8.1906,-8.1851,-8.2054,-8.2046,-8.2018,-8.2031,-8.1953,-8.1838,-8.1805,-8.1773,-8.1727,-8.1649,-8.2234,-8.2235,-8.2235,-8.1908,-8.188,-8.2065,-8.2037,-8.2076,-8.2111,-8.2301,-8.2395,-8.234,-8.2259,-8.2041,-8.2015,-8.1827,-8.1769,-8.1685,-8.1614,-8.147,0,0]},{"header":{"parameterUnit":"m.s-1","parameterCategory":1,"la1":30.2992,"la2":30.254,"lo1":-89.0895,"lo2":-89.0443,"dy":0.0025,"dx":0.0025,"nx":19,"ny":19,"refTime":"2026-04-19T21:00:00:Z","depth":0,"parameterNumber":3,"parameterNumberName":"V-component_of_WINDS"},"data":[0,0,0,-2.827,-2.8272,-2.8357,-2.8357,-2.8473,-2.8474,0,0,0,0,0,0,0,0,0,0,0,-2.825,-2.8251,-2.827,-2.8273,-2.8357,-2.8357,-2.8473,-2.8474,0,0,0,0,0,0,0,0,0,0,0,-2.825,-2.8251,-2.8252,-2.8273,-2.8357,-2.8357,-2.8473,-2.8406,0,0,0,0,0,0,0,0,0,0,-2.8323,-2.8309,-2.8251,-2.8252,-2.8273,-2.8357,-2.8357,-2.8403,-2.841,-2.8438,0,-2.8465,0,-2.8472,-2.8483,-2.8483,0,0,0,-2.8269,-2.8303,-2.8321,-2.8252,-2.8274,-2.8357,-2.8318,-2.8407,-2.8416,-2.8448,-2.8466,-2.847,-2.8473,-2.8484,-2.8484,-2.8658,-2.8658,0,0,-2.8264,-2.8268,-2.8315,-2.8327,-2.8314,-2.8315,-2.8321,-2.8412,-2.8432,-2.8467,-2.8473,-2.8475,-2.8484,-2.8485,-2.8657,-2.8658,0,0,0,-2.8253,-2.8265,-2.8281,-2.8322,-2.8337,-2.8318,-2.8324,-2.8428,-2.8433,-2.8474,-2.8477,-2.8485,-2.8487,-2.8656,-2.8657,-2.871,0,0,0,-2.825,-2.8259,-2.8279,-2.8283,-2.8335,-2.8384,-2.8338,-2.8426,-2.8436,-2.8476,-2.8485,-2.8488,-2.8654,-2.8656,-2.8706,-2.8734,0,0,0,-2.8243,-2.8258,-2.8272,-2.8283,-2.8319,-2.8382,-2.8392,-2.8428,-2.8438,-2.8483,-2.8488,-2.8654,-2.8656,-2.8702,-2.8729,-2.8781,0,0,0,-2.8237,-2.8318,-2.8273,-2.8364,-2.8318,-2.8414,-2.8391,-2.8462,-2.8507,-2.8486,-2.8655,-2.8657,-2.8701,-2.8725,-2.8778,-2.8827,-2.8847,0,0,-2.8341,-2.8331,-2.8384,-2.8346,-2.845,-2.84,-2.8512,-2.855,-2.855,-2.8622,-2.8626,-2.8707,-2.8728,-2.878,-2.896,-2.8976,0,0,0,-2.8418,-2.8457,-2.8483,-2.8526,-2.8556,-2.8584,-2.8604,-2.8617,-2.8677,-2.8588,-2.874,-2.8752,-2.8783,-2.8806,-2.882,-2.8846,-2.8668,-2.8667,-2.8667,-2.8573,-2.8569,-2.8656,-2.8662,-2.8704,-2.8722,-2.8756,-2.8777,-2.8761,-2.8797,-2.8819,-2.8928,-2.8955,-2.8966,-2.8993,-2.8843,-2.8844,-2.8844,-2.8844,-2.8726,-2.878,-2.8755,-2.8832,-2.8827,-2.8891,-2.8911,-2.8898,-2.8957,-2.8912,-2.8938,-2.889,-2.8984,-2.9007,-2.8848,-2.8847,-2.8847,-2.8846,-2.8846,-2.8828,-2.8852,-2.8867,-2.8928,-2.8975,-2.8977,-2.9035,-2.9028,-2.9022,-2.9048,-2.907,-2.9069,-2.9068,-2.9058,-2.9059,-2.9059,-2.906,-2.906,-2.906,-2.8927,-2.8942,-2.8991,-2.9029,-2.9055,-2.9088,-2.9107,-2.9132,-2.9159,-2.9149,-2.9149,-2.913,-2.8994,-2.896,-2.9066,-2.9065,-2.9064,-2.9064,-2.9063,-2.9086,-2.9048,-2.9125,-2.9151,-2.9194,-2.9241,-2.923,-2.9283,-2.9302,-2.9331,-2.9305,-2.9205,-2.9194,-2.9183,-2.9155,-2.9306,-2.9306,-2.9306,-2.9306,-2.9172,-2.9165,-2.9241,-2.9283,-2.9323,-2.9321,-2.9407,-2.9422,-2.9431,-2.9443,-2.942,-2.9382,-2.9371,-2.9366,-2.9351,-2.9325,-2.9516,-2.9516,-2.9516,-2.9269,-2.9265,-2.934,-2.9349,-2.9381,-2.941,-2.949,-2.9539,-2.9542,-2.9524,-2.9452,-2.9444,-2.9382,-2.9362,-2.9344,-2.9321,-2.9273,0,0]}]]